Location: Asheville, NC
(35.6000°N, 82.5500°W)
Time: 04:42:08
(UTC-04:00)

Vanguard 2 Rocket - Pass Details

Date: 15 February 2018
Orbit: 553 x 3327 km, 32.9° (Epoch: 24 May)

Event Time Altitude Azimuth Distance (km) Brightness Sun altitude
Exits shadow 00:53:13 22° 84° (E) 5,319 10.7 -67.0°
Drops below altitude 10° 00:58:04 10° 81° (E) 6,238 11.1 -66.9°
Sets 01:02:45 0° 79° (E) 7,143 11.6 -66.7°
